Weather History for KMKY - January, 2014

Change the Weather History Date:

Wednesday, January 29, 2014

  Actual Average (KAPF) Record (KAPF)
Temperature  
Mean Temperature 62 °F 65 °F  
Max Temperature 69 °F 75 °F 86 °F (1974)
Min Temperature 55 °F 55 °F 33 °F (1986)
Degree Days  
Heating Degree Days 3 3  
Month to date heating degree days 100  
Since 1 July heating degree days 178  
Cooling Degree Days 0 2  
Month to date cooling degree days 84  
Year to date cooling degree days 84  
Growing Degree Days 12 (Base 50)    
Moisture  
Dew Point 60 °F    
Average Humidity 93    
Maximum Humidity 100    
Minimum Humidity 82    
Precipitation  
Precipitation 0.07 in 0.07 in 1.08 in (1961)
Month to date precipitation 1.69  
Year to date precipitation 1.69  
Snow  
Snow 0.00 in - - ()
Month to date snowfall  
Since 1 July snowfall  
Snow Depth -    
Sea Level Pressure  
Sea Level Pressure 30.04 in    
Wind  
Wind Speed 5 mph (NE)    
Max Wind Speed 18 mph    
Max Gust Speed 25 mph    
Visibility 8 miles    
Events      
T = Trace of Precipitation, MM = Missing Value Source: NWS Daily Summary

Daily Weather History Graph

Daily Weather History Graph

Search for Another Location

Airport or City:

Trip Planner

Search our weather history database for the weather conditions in past years. The results will help you decide how hot, cold, wet, or windy it might be!

Date:

Astronomy

Jan. 29, 2014 Rise Set
Actual Time 7:12 AM EST 6:07 PM EST
Civil Twilight 6:47 AM EST 6:32 PM EST
Nautical Twilight 6:20 AM EST 6:59 PM EST
Astronomical Twilight 5:52 AM EST 7:27 PM EST
Moon 5:46 AM EST (1/29) 5:05 PM EST (1/29)
Length of Visible Light 11h 44m
Length of Day
10h 55m
Waning Crescent, 2% of the Moon is Illuminated
Jan 29
Waning Crescent
Jan 30
New
Feb 6
First Quarter
Feb 14
Full
Feb 22
Last Quarter

Hourly Weather History & Observations

Time (EST) Temp. Dew Point Humidity Pressure Visibility Wind Dir Wind Speed Gust Speed Precip Events Conditions
12:15 AM 62.6 °F 62.6 °F 100% 30.03 in 10.0 mi Calm Calm - N/A   Partly Cloudy
12:35 AM 62.6 °F 60.8 °F 94% 30.02 in 3.0 mi SSE 3.5 mph - N/A   Partly Cloudy
12:55 AM 62.6 °F 60.8 °F 94% 30.02 in 1.0 mi SSE 4.6 mph - N/A   Clear
1:15 AM 62.6 °F 60.8 °F 94% 30.02 in 10.0 mi SSE 3.5 mph - N/A   Clear
1:35 AM 62.6 °F 60.8 °F 94% 30.01 in 10.0 mi South 3.5 mph - N/A   Clear
1:55 AM 62.6 °F 60.8 °F 94% 30.01 in 10.0 mi Calm Calm - N/A   Clear
2:15 AM 62.6 °F 60.8 °F 94% 30.00 in 10.0 mi Calm Calm - N/A   Clear
2:35 AM 62.6 °F 60.8 °F 94% 29.99 in 10.0 mi Calm Calm - N/A   Clear
2:55 AM 62.6 °F 60.8 °F 94% 29.99 in 10.0 mi Calm Calm - N/A   Clear
3:15 AM 62.6 °F 60.8 °F 94% 29.99 in 6.0 mi Calm Calm - N/A   Clear
3:35 AM 60.8 °F 60.8 °F 100% 29.99 in 0.8 mi SSE 4.6 mph - N/A   Unknown
3:55 AM 60.8 °F 60.8 °F 100% 29.98 in 1.8 mi Calm Calm - N/A   Clear
4:15 AM 62.6 °F 60.8 °F 94% 29.99 in 8.0 mi Calm Calm - N/A   Scattered Clouds
4:35 AM 62.6 °F 62.6 °F 100% 29.99 in 1.0 mi Calm Calm - N/A   Mostly Cloudy
4:55 AM 62.6 °F 62.6 °F 100% 29.99 in 0.5 mi Calm Calm - N/A   Mostly Cloudy
5:15 AM 62.6 °F 62.6 °F 100% 29.99 in 1.0 mi Calm Calm - N/A   Mostly Cloudy
5:35 AM 62.6 °F 62.6 °F 100% 29.99 in 1.8 mi Calm Calm - N/A   Mostly Cloudy
5:55 AM 62.6 °F 62.6 °F 100% 30.00 in 3.0 mi Calm Calm - N/A   Overcast
6:15 AM 62.6 °F 60.8 °F 94% 30.01 in 10.0 mi Calm Calm - N/A   Overcast
6:35 AM 62.6 °F 60.8 °F 94% 30.01 in 10.0 mi Calm Calm - N/A   Mostly Cloudy
6:55 AM 62.6 °F 62.6 °F 100% 30.02 in 10.0 mi Calm Calm - N/A   Overcast
7:15 AM 62.6 °F 62.6 °F 100% 30.02 in 10.0 mi Calm Calm - N/A   Mostly Cloudy
7:35 AM 62.6 °F 62.6 °F 100% 30.02 in 10.0 mi Calm Calm - N/A   Mostly Cloudy
7:55 AM 64.4 °F 62.6 °F 94% 30.03 in 10.0 mi Calm Calm - N/A   Mostly Cloudy
8:15 AM 64.4 °F 62.6 °F 94% 30.03 in 10.0 mi Calm Calm - N/A   Mostly Cloudy
8:35 AM 64.4 °F 64.4 °F 100% 30.04 in 10.0 mi Calm Calm - N/A   Mostly Cloudy
8:55 AM 66.2 °F 64.4 °F 94% 30.04 in 10.0 mi Calm Calm - N/A   Overcast
9:15 AM 66.2 °F 64.4 °F 94% 30.05 in 10.0 mi Calm Calm - N/A   Overcast
9:35 AM 68.0 °F 66.2 °F 94% 30.05 in 10.0 mi Calm Calm - N/A   Overcast
9:55 AM 69.8 °F 66.2 °F 88% 30.06 in 9.0 mi NW 6.9 mph - N/A   Overcast
10:15 AM 69.8 °F 66.2 °F 88% 30.06 in 9.0 mi NNE 3.5 mph - N/A   Overcast
10:35 AM 69.8 °F 68.0 °F 94% 30.07 in 5.0 mi North 5.8 mph - N/A   Overcast
10:55 AM 68.0 °F 66.2 °F 94% 30.06 in 4.0 mi NNE 9.2 mph - N/A   Overcast
11:15 AM 66.2 °F 66.2 °F 100% 30.06 in 3.0 mi North 9.2 mph - N/A   Overcast
11:35 AM 66.2 °F 64.4 °F 94% 30.05 in 2.5 mi NNE 8.1 mph 16.1 mph N/A   Overcast
11:55 AM 66.2 °F 64.4 °F 94% 30.05 in 2.5 mi NNE 13.8 mph 18.4 mph N/A   Overcast
12:15 PM 66.2 °F 64.4 °F 94% 30.05 in 3.0 mi NE 15.0 mph - N/A   Overcast
12:35 PM 64.4 °F 62.6 °F 94% 30.05 in 4.0 mi NNE 13.8 mph - N/A   Overcast
12:55 PM 62.6 °F 62.6 °F 100% 30.05 in 5.0 mi NNE 12.7 mph - N/A   Overcast
1:15 PM 62.6 °F 62.6 °F 100% 30.05 in 5.0 mi NNE 9.2 mph - 0.02 in   Overcast
1:35 PM 62.6 °F 60.8 °F 94% 30.03 in 4.0 mi NNE 10.4 mph - 0.06 in   Overcast
1:55 PM 62.6 °F 60.8 °F 94% 30.03 in 6.0 mi NNE 12.7 mph - 0.06 in   Overcast
2:15 PM 62.6 °F 60.8 °F 94% 30.02 in 10.0 mi NE 13.8 mph - 0.01 in   Overcast
2:35 PM 62.6 °F 60.8 °F 94% 30.01 in 10.0 mi NE 15.0 mph 21.9 mph 0.01 in   Overcast
2:55 PM 62.6 °F 60.8 °F 94% 30.01 in 10.0 mi NNE 13.8 mph - 0.01 in   Overcast
3:15 PM 62.6 °F 60.8 °F 94% 30.02 in 9.0 mi NE 15.0 mph 20.7 mph N/A   Overcast
3:35 PM 62.6 °F 60.8 °F 94% 30.02 in 9.0 mi NE 11.5 mph - N/A   Overcast
3:55 PM 62.6 °F 60.8 °F 94% 30.02 in 10.0 mi NE 13.8 mph - N/A   Overcast
4:15 PM 62.6 °F 60.8 °F 94% 30.02 in 9.0 mi NNE 12.7 mph - N/A   Overcast
4:35 PM 62.6 °F 60.8 °F 94% 30.02 in 10.0 mi NE 12.7 mph 17.3 mph N/A   Overcast
4:55 PM 62.6 °F 60.8 °F 94% 30.02 in 10.0 mi NE 15.0 mph 19.6 mph N/A   Overcast
5:15 PM 62.6 °F 60.8 °F 94% 30.03 in 10.0 mi NE 11.5 mph - N/A   Overcast
5:35 PM 62.6 °F 60.8 °F 94% 30.03 in 10.0 mi NE 15.0 mph 21.9 mph N/A   Overcast
5:55 PM 62.6 °F 59.0 °F 88% 30.04 in 10.0 mi NE 13.8 mph - N/A   Overcast
6:15 PM 62.6 °F 59.0 °F 88% 30.05 in 10.0 mi NNE 10.4 mph 18.4 mph N/A   Overcast
6:35 PM 62.6 °F 59.0 °F 88% 30.05 in 10.0 mi NNE 15.0 mph 23.0 mph N/A   Overcast
6:55 PM 62.6 °F 57.2 °F 82% 30.06 in 10.0 mi NNE 12.7 mph 23.0 mph N/A   Overcast
7:15 PM 60.8 °F 57.2 °F 88% 30.06 in 10.0 mi NE 15.0 mph 21.9 mph N/A   Overcast
7:35 PM 60.8 °F 57.2 °F 88% 30.06 in 10.0 mi NNE 18.4 mph 21.9 mph N/A   Overcast
7:55 PM 60.8 °F 57.2 °F 88% 30.07 in 10.0 mi NE 16.1 mph 25.3 mph N/A   Overcast
8:15 PM 59.0 °F 55.4 °F 88% 30.07 in 10.0 mi NNE 13.8 mph 23.0 mph N/A   Overcast
8:35 PM 59.0 °F 55.4 °F 88% 30.09 in 10.0 mi NNE 12.7 mph 23.0 mph N/A   Overcast
8:55 PM 57.2 °F 53.6 °F 88% 30.10 in 10.0 mi NNE 16.1 mph 23.0 mph N/A   Overcast
9:15 PM 57.2 °F 53.6 °F 88% 30.10 in 10.0 mi NNE 13.8 mph 21.9 mph N/A   Overcast
9:35 PM 55.4 °F 51.8 °F 88% 30.12 in 10.0 mi NNE 17.3 mph 21.9 mph N/A   Overcast
9:55 PM 55.4 °F 51.8 °F 88% 30.12 in 10.0 mi NNE 18.4 mph 23.0 mph N/A   Overcast
10:15 PM 55.4 °F 51.8 °F 88% 30.12 in 10.0 mi NNE 15.0 mph 19.6 mph N/A   Overcast
10:35 PM 55.4 °F 51.8 °F 88% 30.12 in 10.0 mi NNE 17.3 mph 23.0 mph N/A   Overcast
10:55 PM 55.4 °F 51.8 °F 88% 30.12 in 10.0 mi NNE 13.8 mph 21.9 mph N/A   Overcast
11:15 PM 55.4 °F 51.8 °F 88% 30.11 in 10.0 mi NNE 18.4 mph 24.2 mph N/A   Overcast
11:35 PM 55.4 °F 51.8 °F 88% 30.11 in 10.0 mi NNE 12.7 mph 17.3 mph N/A   Overcast
11:55 PM 55.4 °F 51.8 °F 88% 30.10 in 10.0 mi NNE 16.1 mph - N/A   Overcast